DELTA 1 DEB, 10654

Orbit data source: Space-Track

DELTA 1 DEB, 10654 is space debris in SSO originally from a launch on Thu, 29 Jul 1976 UTC launched from the Air Force Western Test Range (AFWTR). Debris objects in space refer to the collection of defunct objects orbiting the Earth. Examples of debris include non-operational satellites, rocket bodies, and fragments generated from explosions, collisions, or faulty payload assembly.

Loading next visibility...
Identifier
10654, 1976-077Q
Orbit
SSO
Country
Flag of USUS
Related business
Manufacturer
Unknown
Mission
Spacecraft
Bus & Motor
Unknown
Mass
Unknown
Launch date (UTC)
1976-07-29 (50 years ago)
Launch vehicle
Unknown
Launch site
Air Force Western Test Range (AFWTR)
Object type
Payload
Rocket body
Debris
Shape & HBR
Unknown shape, 0.2 m
Radar Cross Section
Medium (>0.1 m² and <1 m²)

Expand to show TLE details & history
Last TLE update: 6 hours ago

TLE from 6 hours ago
0 DELTA 1 DEB
1 10654U 76077Q   26256.16760596 -.00000428  00000-0 -12049-2 0  9998
2 10654 102.4904 223.3620 0199014  48.6813 327.8971 12.95512861354357
Epoch: 2026-09-13T04:01Z
TLE epoch observation values (Epoch: 2026-09-13T04:01:21.154Z)
Latitude
14.94798°
Longitude
167.48459°
Altitude
1,153.389 km
Speed
7.338 km/s
True Right ascension
14h 39m 57s
True Declination
14° 52' 01"
Sunlit
Object was in daylight at epoch
Visualization orbit readout
Latitude
Unknown
Longitude
Unknown
Altitude
Unknown
Speed
Unknown
Apparent Right ascension
Unknown
Apparent Declination
Unknown
Sunlit
N/A
Visualization observer readout
Local Sidereal Time
02:29:14
Azimuth
Unknown
Elevation
Unknown
Doppler factor
Unknown
Orbital elements
Apogee altitude
1,429.607 km
Perigee altitude
1,124.901 km
Semi-major axis
7,655.391 km
Eccentricity
0.0199
Inclination
102.4904°
RAAN
223.362°
Arg. of periapsis
48.6813°
True anomaly
326.65916°
Mean anomaly
327.8971°
Eccentric anomaly
327.28076°
Mean motion
3.24035 °/min
Orbital period
111.1 mins
BSTAR
-0.0012049
Loading maneuver chart data...
Computing Atmospheric mass density...
Loading historical data...
Loading historical data...
Loading historical data...
Loading historical data...
Loading historical data...
Loading historical data...
Loading historical data...

Documentation

Showing up to 5 results
|